185  
ASUS41 KOKX 240706  
RWROKX  
 
REGIONAL WEATHER ROUNDUP  
NATIONAL WEATHER SERVICE NEW YORK NY  
300 AM EDT THU MAY 24 2018  
 
NOTE: "FAIR" INDICATES FEW OR NO CLOUDS BELOW 12,000 FEET WITH NO  
SIGNIFICANT WEATHER AND/OR S TO VISIBILITY
.  
 
NYZ071-072-176-178-NJZ106-104-240800-  
NEW YORK CITY METRO AREA  
 
CITY SKY/WX TMP DP RH WIND PRES REMARKS
 
CENTRAL PARK FAIR 67 50 54 CALM 30.06R  
BRONX BOT GARD N/A 66 48 52 NW2 30.03F  
BRONX LEHMAN C N/A 68 50 52 NW8 N/A  
LAGUARDIA ARPT FAIR 67 52 58 NW8 30.02S  
QUEENS COLLEGE N/A 70 50 49 NW7 N/A  
KENNEDY INTL FAIR 69 50 50 NW12 30.03R  
BREEZY POINT N/A 66 N/A N/A NW6 N/A  
BROOKLYN COLL N/A 68 50 52 W9 N/A  
STATEN ISLAND N/A 64 52 63 W1 N/A  
NEWARK/LIBERTY FAIR 68 51 54 NW9 30.03S  
TETERBORO FAIR 64 51 62 CALM 30.02S  

 
 
NYZ177-179-078>081-240800-  
LONG ISLAND NEW YORK  
 
CITY SKY/WX TMP DP RH WIND PRES REMARKS
 
JONES BEACH N/A 66 N/A N/A NW7 N/A  
WANTAGH N/A 64 50 59 NW6 N/A  
HEMPSTEAD N/A 68 52 56 NW3 30.06R  
MATINECOCK PT N/A 66 N/A N/A SW6 N/A  
FARMINGDALE FAIR 66 50 56 NW7 30.02R  
MACARTHUR/ISP FAIR 61 52 72 NW7 30.01R  
STONY BROOK N/A 63 54 72 NW2 N/A  
SHIRLEY FAIR 63 52 67 N6 30.00S  
MT SINAI HARB N/A N/A N/A N/A W3 N/A  
WESTHAMPTON FAIR 60 51 72 N7 30.01S  
EAST HAMPTON FAIR 52 50 92 CALM 29.99R  
SOUTHOLD N/A 64 50 59 N7 N/A  
MONTAUK N/A 60 50 69 N3 29.99R  

 
 
NYZ052-065-067-240800-  
HUDSON VALLEY  
 
CITY SKY/WX TMP DP RH WIND PRES REMARKS
 
WHITE PLAINS FAIR 63 49 60 W7 30.02S  
LARCHMONT HARB N/A 66 N/A N/A W5 N/A  
CROTON ON HUDS N/A 59 N/A N/A E2 N/A  
SOMERS N/A 59 50 72 NW1 N/A  
BREWSTER N/A 52 50 93 N2 N/A  
NEWBURGH CLEAR 59 54 82 VRB6 30.05S  
MONTGOMERY FAIR 53 50 89 W3 30.04S  
OTISVILLE N/A 55 54 94 S2 N/A  
WARWICK N/A 52 52 100 E1 N/A  
SUFFERN N/A 61 50 67 SW3 N/A  
POUGHKEEPSIE FAIR 53 50 89 NE3 30.03R  
ALBANY FAIR 59 49 69 CALM 30.05R  

 
 
NJZ001-105-106-008-010-013-015-019>022-104-240800-  
NEW JERSEY  
 
CITY SKY/WX TMP DP RH WIND PRES REMARKS
 
NEWARK/LIBERTY FAIR 68 51 54 NW9 30.03S  
TETERBORO FAIR 64 51 62 CALM 30.02S  
CALDWELL FAIR 58 54 86 CALM 30.06R  
SOMERVILLE FAIR 53 53 100 NW6 30.05R  
LINDEN FAIR 65 51 60 NW6 30.04S  
PERTH AMBOY N/A 64 N/A N/A W6 N/A  
SUSSEX FAIR 51 51 100 CALM 30.07S  
ANDOVER N/A 53 52 96 CALM 30.09R  
TRENTON FAIR 62 53 72 W5 30.06R  
MILLVILLE FAIR 60 56 86 W7 30.06R  
ATLANTIC CITY FAIR 61 57 87 NW7 30.05R  
WRIGHTSTOWN CLEAR 63 54 74 NW5 30.03  
TOMS RIVER FAIR 57 54 89 NW5 30.05S  
BELMAR FAIR 60 53 77 NW7 30.05S  

 
 
PAZ047>061-062-071-240800-  
EASTERN PENNSYLVANIA  
 
CITY SKY/WX TMP DP RH WIND PRES REMARKS
 
PHILADELPHIA FAIR 66 54 65 NW8 30.07S  
ALLENTOWN FAIR 60 51 72 NW5 30.09R  
SCRANTON FAIR 54 51 90 CALM 30.11R  

 
 
CTZ002-004>006-009-010-012-RIZ004-006-007-MAZ004-011-015-240800-  
SOUTHERN NEW ENGLAND  
 
IN CT  
 
CITY SKY/WX TMP DP RH WIND PRES REMARKS
 
BRADLEY INTL FAIR 61 51 70 W9 30.00S  
HARTFORD FAIR 59 53 80 SE3 30.00R  
DANBURY FAIR 54 51 90 CALM 30.04S  
WTRBURY/OXFORD FAIR 62 50 64 NW6 30.04S  
NORWALK HARBOR N/A 63 N/A N/A W5 N/A  
BRIDGEPORT FAIR 66 50 56 NW3 30.00S  
MERIDEN FAIR 63 51 65 NW6 30.00F  
NEW HAVEN FAIR 58 51 78 CALM 30.00S  
CHESTER FAIR 64 50 59 NW6 30.00S  
GROTON FAIR 61 51 70 N5 29.98S  
WILLIMANTIC FAIR 55 51 86 CALM 30.00S  
 
IN RI  
 
CITY SKY/WX TMP DP RH WIND PRES REMARKS
 
PROVIDENCE FAIR 59 55 87 NE8 29.99S  
BLOCK ISLAND FAIR 61 51 70 N5 29.98S  
WESTERLY FAIR 63 52 67 N5 29.98S  
 
IN MA  
 
CITY SKY/WX TMP DP RH WIND PRES REMARKS
 
BOSTON FAIR 55 53 93 NE8 30.01R  
WORCESTER FAIR 57 52 83 N3 30.01S  
WESTFIELD FAIR 55 54 96 CALM 30.00S  
PROVINCETOWN FAIR 53 50 89 E12 30.00R  
NANTUCKET FAIR 54 54 100 N6 29.95R  

 
 
ANZ330-335-338-340-345-350-353-355-240800-  
COASTAL MARINE OBSERVATIONS  
 
 
STATION/POSITION TIME SKY/WX TEMP WIND PRES VSBY WAVE
 
AIR SEA DIR/SP/G HT/PER  
(UTC) (F) (DEG/KT/KT) (MB) (MI) (FT/S)  
NY HARB ENTRANCE 0650 63 58 290/ 12/ 14 1016.5 2/ 7  
20 S FIRE ISLAND 0650 60 55 300/ 8/ 8 1016.1 2/ 7  
23 SSW MONTAUK P 0650 60 55 300/ 10/ 10 1015.3 2/ 6  
15 E BARNEGAT LI 0630 62 N/A 3/ 8  
HUDSON CANYON 0650 59 54 290/ 12/ 14 1015.0 3/ 6  
KINGS POINT 0630 64 60 360/ 5/ 5 1017.6  
EXECUTION ROCKS NOT AVBL  
WESTERN LI SOUND NOT AVBL  
CENTRAL LI SOUND 0645 62 330/ 8/ 10 N/A 0  
ROBBINS REEF 0630 69 300/ 8/ 10 1017.4  

 
 
>>>>>>>>>>>>>>>>>>>>>>>>>>>> KEY <<<<<<<<<<<<<<<<<<<<<<<<<<<  
> <  
> SKY/WX - SKY CONDITION/PRESENT WEATHER <  
> TMP - TEMPERATURE IN FAHRENHEIT <  
> DP - DEW POINT IN FAHRENHEIT <  
> RH - RELATIVE HUMIDITY IN PERCENT <  
> WIND - DIRECTION (FROM) AND SPEED IN MPH <  
> PRES - MEAN SEA LEVEL PRESSURE (INCHES OF HG) <  
> WCI - WIND CHILL INDEX <  
> VSB - VISIBILITY IN MILES <  
> HX - HEAT INDEX <  
> TC - TEMPERATURE IN CELSIUS <  
> VRB - VARIBALE WIND DIRECTION <  
> <  
>>>>>>>>>>>>>>>>>>>>>>>>>>>> KEY <<<<<<<<<<<<<<<<<<<<<<<<<<<  
 
 
CLICK HERE TO GO TO PREVIOUS BULLETINS.

The Nexlab NY Page
The Nexlab NJ Page
The Nexlab CT Page Main Text Page